User: anonymous   Login
Location: Unspecified
(0.0000°N, 0.0000°E)
Time: 12:05:50
(UTC+02:00)
Language:

Milstar 3 Cent rocket - Orbit

View from above orbital plane
View from above orbital plane
View from above satellite
View from above satellite

Ground track
Ground track

The orbit data is extracted from the following two-line orbital elements,

1 25725U 99023B   16106.44970752 0.00000110  00000-0  24811-3 0    00
2 25725  28.3141 177.2027 2385418 331.4848  28.5146  9.67232261    04
Epoch (UTC): 15 April 2016 10:47:34
Eccentricity: 0.2385418
inclination: 28.3141°
perigee height: 707 km
apogee height: 5146 km
right ascension of ascending node: 177.2027°
argument of perigee: 331.4848°
revolutions per day: 9.67232261
mean anomaly at epoch: 28.5146°
orbit number at epoch: 0

The dashed part of the orbit path shows where the satellite is in the earth's shadow,  

DLR